This is the latest recevied weather packets stored in our database for station/object NE8U. If no packets are shown the sender has not sent any weather packets the latest 10 day(s).
| Time | Temp. | Humidity | Pressure | Rain* | Wind** | Luminosity | Snow |
|---|---|---|---|---|---|---|---|
| 1777750500 | 30.56° C | 19% | 1015.5 hPa | 0 mm | - | 835 W/m² | - |
| 1777750196 | 30.56° C | 20% | 1015.5 hPa | 0 mm | - | 744 W/m² | - |
| 1777749893 | 30.56° C | 19% | 1015.3 hPa | 0 mm | - | 798 W/m² | - |
| 1777749590 | 30.56° C | 19% | 1015.5 hPa | 0 mm | - | 668 W/m² | - |
| 1777749287 | 30.56° C | 19% | 1015.7 hPa | 0 mm | - | 835 W/m² | - |
| 1777748985 | 31.11° C | 21% | 1015.6 hPa | 0 mm | - | 836 W/m² | - |
| 1777748682 | 30° C | 21% | 1016 hPa | 0 mm | - | 815 W/m² | - |
| 1777748378 | 30° C | 23% | 1015.9 hPa | 0 mm | - | 817 W/m² | - |
| 1777748074 | 30.56° C | 22% | 1015.9 hPa | 0 mm | - | 806 W/m² | - |
| 1777747771 | 30.56° C | 23% | 1016 hPa | 0 mm | - | 789 W/m² | - |
| 1777747466 | 30° C | 22% | 1016.2 hPa | 0 mm | - | 783 W/m² | - |
| 1777747163 | 30° C | 24% | 1016.2 hPa | 0 mm | - | 773 W/m² | - |
| 1777746859 | 30° C | 24% | 1016.6 hPa | 0 mm | - | 786 W/m² | - |
| 1777746555 | 29.44° C | 24% | 1016.4 hPa | 0 mm | - | 778 W/m² | - |
| 1777746250 | 28.89° C | 24% | 1016.5 hPa | 0 mm | - | 788 W/m² | - |
| 1777745947 | 28.89° C | 25% | 1016.7 hPa | 0 mm | - | 789 W/m² | - |
| 1777745645 | 28.89° C | 25% | 1016.7 hPa | 0 mm | - | 778 W/m² | - |
| 1777745344 | 29.44° C | 25% | 1016.7 hPa | 0 mm | - | 760 W/m² | - |
| 1777745040 | 28.89° C | 24% | 1016.6 hPa | 0 mm | - | 757 W/m² | - |
| 1777744736 | 28.89° C | 25% | 1016.9 hPa | 0 mm | - | 761 W/m² | - |
| 1777744430 | 28.33° C | 26% | 1016.8 hPa | 0 mm | - | 736 W/m² | - |
| 1777744128 | 28.33° C | 26% | 1016.7 hPa | 0 mm | - | 755 W/m² | - |
| 1777743824 | 28.33° C | 26% | 1016.7 hPa | 0 mm | - | 768 W/m² | - |
| 1777743521 | 28.33° C | 27% | 1016.8 hPa | 0 mm | - | 798 W/m² | - |
| 1777743218 | 27.78° C | 28% | 1017 hPa | 0 mm | - | 804 W/m² | - |
* Rain latest hour (hover to see other rain measurements)
** Current wind speed in m/s (hover to see current wind gust speed)